User: anonymous   Login
Location: Pilipovskiye Korichintsy
(49.1833°N, 27.4667°E)
Time: 22:38:56
(UTC+00:00)
Language:

Cosmos 1666 - Orbit

View from above orbital plane
View from above orbital plane
View from above satellite
View from above satellite

Ground track
Ground track

The orbit data is extracted from the following two-line orbital elements,

1 15889U 85058A   20269.89088390 +.00000880 +00000-0 +40375-4 0  9990
2 15889 082.4861 247.0345 0015828 213.3950 146.6288 15.18997931923466
Epoch (UTC): 25 September 2020 21:22:52
Eccentricity: 0.0015828
inclination: 82.4861°
perigee height: 498 km
apogee height: 520 km
right ascension of ascending node: 247.0345°
argument of perigee: 213.3950°
revolutions per day: 15.18997931
mean anomaly at epoch: 146.6288°
orbit number at epoch: 92346

The dashed part of the orbit path shows where the satellite is in the earth's shadow,  

DLR